Tracking 32412 objects as of 6-Dec-2025
HD Live streaming from Space Station
objects crossing your sky now

STARLINK-4768

Track STARLINK-4768 now!
10-day predictions
STARLINK-4768 is classified as:


NORAD ID: 53806
Int'l Code: 2022-111AK
Perigee: 545.8 km
Apogee: 548.1 km
Inclination: 53.2 °
Period: 95.4 minutes
Semi major axis: 6917 km
RCS: Unknown
Launch date: September 11, 2022
Source: United States (US)
Launch site: AIR FORCE EASTERN TEST RANGE (AFETR)
Your satellite tracking list
Your tracking list is empty




NASA's NSSDC Master Catalog

Two Line Element Set (TLE):
1 53806U 22111AK  25340.19013366 -.00003750  00000-0 -21773-3 0  9992
2 53806  53.2196 308.6990 0001704  90.9795 269.1392 15.08824829179912
Source of the keplerian elements: AFSPC